Tracking 35331 objects as of 16-Sep-2026
HD Live streaming from Space Station
objects crossing your sky now

COSMOS 2121 DEB


COSMOS 2121 DEB is no longer on orbit


NORAD ID: 21095
Int'l Code: 1991-004C
Launch date: January 17, 1991
Source: Commonwealth of Independent States (former USSR) (CIS)
Launch site: PLESETSK MISSILE AND SPACE COMPLEX (PKMTR)
Decay date: 1991-02-21

Note: This is SATELLITE DEBRIS
Your satellite tracking list
Your tracking list is empty




NASA's NSSDC Master Catalog

Two Line Element Set (TLE):
1 21095U 91004  C 91052.19922738  .06793185 +61472-5 +45947-3 0  9995
2 21095 082.5735 262.0461 0008265 319.7647 040.5081 16.40929506005597
Source of the keplerian elements: AFSPC